Time,TemperatureF,DewpointF,PressureIn,WindDirection,WindDirectionDegrees,WindSpeedMPH,WindSpeedGustMPH,Humidity,HourlyPrecipIn,Conditions,Clouds,dailyrainin,SoftwareType,DateUTC
2013-02-21 08:25:00,14.3,5.0,29.77,SE,132,4.0,5.0,66,0.00,,,0.00,Wunderground v.1.15,2013-02-21 13:25:00,
2013-02-21 08:30:00,14.4,5.1,29.77,WSW,244,4.0,5.0,66,0.00,,,0.00,Wunderground v.1.15,2013-02-21 13:30:00,
2013-02-21 08:35:00,14.5,5.2,29.77,SW,235,4.0,7.0,66,0.00,,,0.00,Wunderground v.1.15,2013-02-21 13:35:00,
2013-02-21 08:40:00,14.4,4.8,29.78,WNW,284,4.0,7.0,65,0.00,,,0.00,Wunderground v.1.15,2013-02-21 13:40:00,
2013-02-21 08:45:00,14.4,5.1,29.78,SE,143,4.0,4.0,66,0.00,,,0.00,Wunderground v.1.15,2013-02-21 13:45:00,
2013-02-21 08:50:00,14.6,5.3,29.77,SW,232,3.0,4.0,66,0.00,,,0.00,Wunderground v.1.15,2013-02-21 13:50:00,
2013-02-21 08:55:00,14.7,5.1,29.77,SSE,156,4.0,5.0,65,0.00,,,0.00,Wunderground v.1.15,2013-02-21 13:55:00,
2013-02-21 09:00:00,14.7,5.7,29.78,WSW,238,5.0,5.0,67,0.00,,,0.00,Wunderground v.1.15,2013-02-21 14:00:00,
2013-02-21 09:10:00,15.1,6.1,29.78,WSW,240,3.0,4.0,67,0.00,,,0.00,Wunderground v.1.15,2013-02-21 14:10:00,
2013-02-21 09:15:00,15.3,6.0,29.78,NW,321,4.0,7.0,66,0.00,,,0.00,Wunderground v.1.15,2013-02-21 14:15:00,
2013-02-21 09:25:00,15.9,6.2,29.79,South,177,4.0,7.0,65,0.00,,,0.00,Wunderground v.1.15,2013-02-21 14:25:00,
2013-02-21 09:30:00,16.0,6.3,29.79,SSE,154,2.0,4.0,65,0.00,,,0.00,Wunderground v.1.15,2013-02-21 14:30:00,
2013-02-21 09:40:00,15.5,5.8,29.79,SE,146,4.0,4.0,65,0.00,,,0.00,Wunderground v.1.15,2013-02-21 14:40:00,
2013-02-21 09:45:00,15.3,5.6,29.79,South,181,3.0,4.0,65,0.00,,,0.00,Wunderground v.1.15,2013-02-21 14:45:00,
2013-02-21 09:55:00,15.7,5.3,29.79,West,269,3.0,4.0,63,0.00,,,0.00,Wunderground v.1.15,2013-02-21 14:55:00,
2013-02-21 10:05:00,15.8,4.7,29.80,ESE,113,3.0,10.0,61,0.00,,,0.00,Wunderground v.1.15,2013-02-21 15:05:00,
2013-02-21 10:10:00,16.0,4.9,29.80,West,270,3.0,3.0,61,0.00,,,0.00,Wunderground v.1.15,2013-02-21 15:10:00,
2013-02-21 10:15:00,16.1,4.6,29.80,WSW,248,2.0,3.0,60,0.00,,,0.00,Wunderground v.1.15,2013-02-21 15:15:00,
2013-02-21 10:25:00,16.2,4.4,29.80,WNW,297,2.0,7.0,59,0.00,,,0.00,Wunderground v.1.15,2013-02-21 15:25:00,
2013-02-21 10:30:00,16.0,4.5,29.80,South,177,3.0,3.0,60,0.00,,,0.00,Wunderground v.1.15,2013-02-21 15:30:00,
2013-02-21 10:40:00,17.1,5.6,29.80,South,183,3.0,3.0,60,0.00,,,0.00,Wunderground v.1.15,2013-02-21 15:40:00,
2013-02-21 10:45:00,18.0,5.7,29.80,WSW,242,3.0,5.0,58,0.00,,,0.00,Wunderground v.1.15,2013-02-21 15:45:00,
2013-02-21 10:50:00,18.3,5.6,29.80,SSE,155,4.0,10.0,57,0.00,,,0.00,Wunderground v.1.15,2013-02-21 15:50:00,
2013-02-21 11:00:00,18.8,6.1,29.80,SW,232,3.0,3.0,57,0.00,,,0.00,Wunderground v.1.15,2013-02-21 16:00:00,
2013-02-21 11:05:00,18.9,6.2,29.80,ESE,109,3.0,3.0,57,0.00,,,0.00,Wunderground v.1.15,2013-02-21 16:05:00,
2013-02-21 11:15:00,19.5,6.7,29.80,ESE,123,3.0,3.0,57,0.00,,,0.00,Wunderground v.1.15,2013-02-21 16:15:00,
2013-02-21 11:20:00,19.6,6.4,29.80,SW,225,3.0,7.0,56,0.00,,,0.00,Wunderground v.1.15,2013-02-21 16:20:00,
2013-02-21 11:25:00,19.4,6.2,29.80,NNW,327,3.0,7.0,56,0.00,,,0.00,Wunderground v.1.15,2013-02-21 16:25:00,
2013-02-21 11:35:00,18.8,6.4,29.81,SE,145,3.0,4.0,58,0.00,,,0.00,Wunderground v.1.15,2013-02-21 16:35:00,
2013-02-21 11:40:00,18.6,6.6,29.81,NNW,346,3.0,6.0,59,0.00,,,0.00,Wunderground v.1.15,2013-02-21 16:40:00,
2013-02-21 11:50:00,17.7,5.8,29.81,ESE,105,5.0,5.0,59,0.00,,,0.00,Wunderground v.1.15,2013-02-21 16:50:00,
2013-02-21 11:55:00,17.6,6.4,29.81,SSW,200,5.0,5.0,61,0.00,,,0.00,Wunderground v.1.15,2013-02-21 16:55:00,
2013-02-21 12:05:00,17.7,6.5,29.81,SSW,203,4.0,10.0,61,0.00,,,0.00,Wunderground v.1.15,2013-02-21 17:05:00,
2013-02-21 12:10:00,17.9,6.7,29.81,NE,56,4.0,4.0,61,0.00,,,0.00,Wunderground v.1.15,2013-02-21 17:10:00,
2013-02-21 12:15:00,18.6,7.4,29.81,North,4,3.0,5.0,61,0.00,,,0.00,Wunderground v.1.15,2013-02-21 17:15:00,
2013-02-21 12:25:00,19.4,7.0,29.82,NE,54,3.0,5.0,58,0.00,,,0.00,Wunderground v.1.15,2013-02-21 17:25:00,
2013-02-21 12:30:00,19.7,7.7,29.81,SSW,210,3.0,4.0,59,0.00,,,0.00,Wunderground v.1.15,2013-02-21 17:30:00,
2013-02-21 12:35:00,19.2,7.2,29.81,SW,221,3.0,5.0,59,0.00,,,0.00,Wunderground v.1.15,2013-02-21 17:35:00,
2013-02-21 12:40:00,19.0,7.4,29.82,SSE,166,3.0,3.0,60,0.00,,,0.00,Wunderground v.1.15,2013-02-21 17:40:00,
2013-02-21 12:50:00,18.8,7.6,29.82,SW,221,3.0,5.0,61,0.00,,,0.00,Wunderground v.1.15,2013-02-21 17:50:00,
2013-02-21 13:00:00,18.3,7.8,29.82,SW,222,4.0,7.0,63,0.00,,,0.00,Wunderground v.1.15,2013-02-21 18:00:00,
2013-02-21 13:05:00,18.1,8.0,29.83,ESE,116,5.0,10.0,64,0.00,,,0.00,Wunderground v.1.15,2013-02-21 18:05:00,
2013-02-21 13:10:00,18.2,7.7,29.82,WSW,247,5.0,5.0,63,0.00,,,0.00,Wunderground v.1.15,2013-02-21 18:10:00,
2013-02-21 13:29:00,18.2,8.1,29.83,SW,222,4.0,4.0,64,0.00,,,0.00,Wunderground v.1.15,2013-02-21 18:29:00,
2013-02-21 13:35:00,18.2,8.1,29.83,North,4,5.0,5.0,64,0.00,,,0.00,Wunderground v.1.15,2013-02-21 18:35:00,
2013-02-21 13:40:00,18.4,8.2,29.83,SSE,162,6.0,6.0,64,0.00,,,0.00,Wunderground v.1.15,2013-02-21 18:40:00,
2013-02-21 13:50:00,18.7,8.9,29.83,ENE,75,4.0,8.0,65,0.00,,,0.00,Wunderground v.1.15,2013-02-21 18:50:00,
2013-02-21 14:00:00,19.0,8.8,29.84,SW,215,4.0,4.0,64,0.00,,,0.00,Wunderground v.1.15,2013-02-21 19:00:00,
2013-02-21 14:10:00,19.5,9.6,29.84,ESE,103,3.0,3.0,65,0.00,,,0.00,Wunderground v.1.15,2013-02-21 19:10:00,
2013-02-21 16:30:00,21.6,12.3,29.92,WSW,252,3.0,4.0,67,0.00,,,0.00,Wunderground v.1.15,2013-02-21 21:30:00,
2013-02-21 16:35:00,21.6,12.3,29.93,WNW,285,3.0,4.0,67,0.00,,,0.00,Wunderground v.1.15,2013-02-21 21:35:00,
2013-02-21 16:40:00,21.6,12.0,29.94,SSW,208,3.0,4.0,66,0.00,,,0.00,Wunderground v.1.15,2013-02-21 21:40:00,
2013-02-21 16:50:00,20.7,12.1,29.94,SSW,199,4.0,4.0,69,0.00,,,0.00,Wunderground v.1.15,2013-02-21 21:50:00,
2013-02-21 17:00:00,21.0,12.7,29.95,South,190,4.0,4.0,70,0.00,,,0.00,Wunderground v.1.15,2013-02-21 22:00:00,
2013-02-21 17:05:00,21.3,12.4,29.95,SE,136,4.0,4.0,68,0.00,,,0.00,Wunderground v.1.15,2013-02-21 22:05:00,
2013-02-21 17:10:00,21.5,12.6,29.96,SSW,203,3.0,4.0,68,0.00,,,0.00,Wunderground v.1.15,2013-02-21 22:10:00,
2013-02-21 17:20:00,21.5,12.9,29.97,SSW,212,3.0,4.0,69,0.00,,,0.00,Wunderground v.1.15,2013-02-21 22:20:00,
2013-02-21 17:25:00,21.6,12.7,29.97,SE,143,2.0,4.0,68,0.00,,,0.00,Wunderground v.1.15,2013-02-21 22:25:00,
2013-02-21 17:35:00,21.7,13.1,29.98,SSE,152,2.0,3.0,69,0.00,,,0.00,Wunderground v.1.15,2013-02-21 22:35:00,
2013-02-21 17:40:00,21.5,12.9,29.98,SSE,166,4.0,4.0,69,0.00,,,0.00,Wunderground v.1.15,2013-02-21 22:40:00,
2013-02-21 17:45:00,21.1,12.8,29.99,SSE,163,4.0,4.0,70,0.00,,,0.00,Wunderground v.1.15,2013-02-21 22:45:00,
2013-02-21 17:55:00,20.5,12.6,30.00,SE,138,2.0,3.0,71,0.00,,,0.00,Wunderground v.1.15,2013-02-21 22:55:00,
2013-02-21 18:00:00,20.4,12.8,30.01,NNE,26,1.0,1.0,72,0.00,,,0.00,Wunderground v.1.15,2013-02-21 23:00:00,
2013-02-21 18:10:00,21.3,14.3,30.01,South,171,2.0,6.0,74,0.00,,,0.00,Wunderground v.1.15,2013-02-21 23:10:00,
2013-02-21 18:15:00,21.4,13.8,30.01,South,184,3.0,6.0,72,0.00,,,0.00,Wunderground v.1.15,2013-02-21 23:15:00,
2013-02-21 18:20:00,21.1,13.8,30.02,NNW,341,2.0,2.0,73,0.00,,,0.00,Wunderground v.1.15,2013-02-21 23:20:00,
2013-02-21 18:30:00,20.9,13.6,30.02,ESE,121,0.0,3.0,73,0.00,,,0.00,Wunderground v.1.15,2013-02-21 23:30:00,
2013-02-21 18:35:00,21.2,14.2,30.03,SE,135,1.0,3.0,74,0.00,,,0.00,Wunderground v.1.15,2013-02-21 23:35:00,
2013-02-21 18:45:00,21.0,14.0,30.04,ESE,112,1.0,3.0,74,0.00,,,0.00,Wunderground v.1.15,2013-02-21 23:45:00,
2013-02-21 18:50:00,20.8,13.8,30.04,NNE,20,1.0,1.0,74,0.00,,,0.00,Wunderground v.1.15,2013-02-21 23:50:00,
2013-02-21 18:55:00,20.9,13.9,30.05,WNW,287,1.0,1.0,74,0.00,,,0.00,Wunderground v.1.15,2013-02-21 23:55:00,
2013-02-21 19:00:00,20.9,13.9,30.05,SE,126,1.0,1.0,74,0.00,,,0.00,Wunderground v.1.15,2013-02-22 00:00:00,
2013-02-21 19:10:00,20.6,13.9,30.06,North,4,1.0,2.0,75,0.00,,,0.00,Wunderground v.1.15,2013-02-22 00:10:00,
2013-02-21 19:15:00,20.4,13.7,30.06,SE,143,1.0,2.0,75,0.00,,,0.00,Wunderground v.1.15,2013-02-22 00:15:00,
2013-02-21 19:25:00,20.6,13.6,30.07,SE,135,1.0,3.0,74,0.00,,,0.00,Wunderground v.1.15,2013-02-22 00:25:00,
2013-02-21 19:30:00,20.8,13.8,30.07,ESE,115,1.0,1.0,74,0.00,,,0.00,Wunderground v.1.15,2013-02-22 00:30:00,
2013-02-21 19:35:00,21.0,13.7,30.08,NNE,13,1.0,1.0,73,0.00,,,0.00,Wunderground v.1.15,2013-02-22 00:35:00,
2013-02-21 19:45:00,20.9,13.6,30.09,SE,145,2.0,3.0,73,0.00,,,0.00,Wunderground v.1.15,2013-02-22 00:45:00,
2013-02-21 19:50:00,20.9,13.6,30.09,North,1,2.0,2.0,73,0.00,,,0.00,Wunderground v.1.15,2013-02-22 00:50:00,
2013-02-21 20:00:00,20.3,13.3,30.09,ENE,76,2.0,2.0,74,0.00,,,0.00,Wunderground v.1.15,2013-02-22 01:00:00,
2013-02-21 20:05:00,19.9,13.3,30.09,NW,319,1.0,2.0,75,0.00,,,0.00,Wunderground v.1.15,2013-02-22 01:05:00,
2013-02-21 20:10:00,20.2,13.5,30.09,East,83,1.0,1.0,75,0.00,,,0.00,Wunderground v.1.15,2013-02-22 01:10:00,
2013-02-21 20:20:00,19.9,13.3,30.10,ESE,118,0.0,0.0,75,0.00,,,0.00,Wunderground v.1.15,2013-02-22 01:20:00,
2013-02-21 20:25:00,20.2,13.5,30.11,NE,44,1.0,1.0,75,0.00,,,0.00,Wunderground v.1.15,2013-02-22 01:25:00,
2013-02-21 20:35:00,20.5,13.8,30.12,SE,128,1.0,1.0,75,0.00,,,0.00,Wunderground v.1.15,2013-02-22 01:35:00,
2013-02-21 20:40:00,20.2,13.5,30.12,South,190,1.0,1.0,75,0.00,,,0.00,Wunderground v.1.15,2013-02-22 01:40:00,
2013-02-21 20:50:00,20.8,14.1,30.13,SE,128,1.0,1.0,75,0.00,,,0.00,Wunderground v.1.15,2013-02-22 01:50:00,
2013-02-21 20:55:00,20.8,14.1,30.13,ESE,111,1.0,1.0,75,0.00,,,0.00,Wunderground v.1.15,2013-02-22 01:55:00,
2013-02-21 21:05:00,21.3,14.6,30.13,WSW,250,2.0,4.0,75,0.00,,,0.00,Wunderground v.1.15,2013-02-22 02:05:00,
2013-02-21 21:10:00,21.3,14.6,30.14,SE,129,2.0,6.0,75,0.00,,,0.00,Wunderground v.1.15,2013-02-22 02:10:00,
2013-02-21 21:15:00,21.4,14.7,30.14,NE,41,4.0,6.0,75,0.00,,,0.00,Wunderground v.1.15,2013-02-22 02:15:00,
2013-02-21 21:25:00,21.9,15.2,30.14,SE,142,2.0,5.0,75,0.00,,,0.00,Wunderground v.1.15,2013-02-22 02:25:00,
2013-02-21 21:30:00,22.0,15.3,30.14,SSE,154,3.0,3.0,75,0.00,,,0.00,Wunderground v.1.15,2013-02-22 02:30:00,
2013-02-21 21:35:00,22.1,15.7,30.14,SSE,152,2.0,3.0,76,0.00,,,0.00,Wunderground v.1.15,2013-02-22 02:35:00,
2013-02-21 21:45:00,22.3,15.9,30.14,South,179,2.0,2.0,76,0.00,,,0.00,Wunderground v.1.15,2013-02-22 02:45:00,
2013-02-21 21:50:00,22.4,16.0,30.15,NNE,19,2.0,2.0,76,0.00,,,0.00,Wunderground v.1.15,2013-02-22 02:50:00,
2013-02-21 22:00:00,22.0,15.9,30.15,NNE,13,1.0,2.0,77,0.00,,,0.00,Wunderground v.1.15,2013-02-22 03:00:00,
2013-02-21 22:05:00,22.2,16.4,30.16,South,182,1.0,2.0,78,0.00,,,0.00,Wunderground v.1.15,2013-02-22 03:05:00,
2013-02-21 22:15:00,22.8,17.0,30.16,NE,38,1.0,3.0,78,0.00,,,0.00,Wunderground v.1.15,2013-02-22 03:15:00,
2013-02-21 22:20:00,22.9,16.8,30.16,SSE,162,1.0,2.0,77,0.00,,,0.00,Wunderground v.1.15,2013-02-22 03:20:00,
2013-02-21 22:25:00,22.8,17.0,30.16,East,95,1.0,2.0,78,0.00,,,0.00,Wunderground v.1.15,2013-02-22 03:25:00,
2013-02-21 22:35:00,23.2,17.4,30.16,NW,322,1.0,3.0,78,0.00,,,0.00,Wunderground v.1.15,2013-02-22 03:35:00,
2013-02-21 22:40:00,23.5,17.6,30.16,NNW,343,1.0,1.0,78,0.00,,,0.00,Wunderground v.1.15,2013-02-22 03:40:00,
2013-02-21 22:50:00,23.7,17.8,30.16,WNW,287,1.0,1.0,78,0.00,,,0.00,Wunderground v.1.15,2013-02-22 03:50:00,
2013-02-21 22:55:00,23.8,17.9,30.17,West,271,1.0,1.0,78,0.00,,,0.00,Wunderground v.1.15,2013-02-22 03:55:00,
2013-02-21 23:00:00,24.0,17.8,30.17,WSW,246,1.0,1.0,77,0.00,,,0.00,Wunderground v.1.15,2013-02-22 04:00:00,
2013-02-21 23:10:00,23.7,17.8,30.17,SW,218,1.0,1.0,78,0.00,,,0.00,Wunderground v.1.15,2013-02-22 04:10:00,
2013-02-21 23:15:00,23.7,17.8,30.18,South,176,1.0,2.0,78,0.00,,,0.00,Wunderground v.1.15,2013-02-22 04:15:00,
2013-02-21 23:20:00,23.9,18.0,30.18,ESE,118,1.0,1.0,78,0.00,,,0.00,Wunderground v.1.15,2013-02-22 04:20:00,
2013-02-21 23:30:00,24.2,18.3,30.19,NNW,337,1.0,1.0,78,0.00,,,0.00,Wunderground v.1.15,2013-02-22 04:30:00,
2013-02-21 23:35:00,24.5,18.6,30.20,SSE,156,1.0,1.0,78,0.00,,,0.00,Wunderground v.1.15,2013-02-22 04:35:00,
2013-02-21 23:45:00,25.1,19.2,30.21,South,182,1.0,2.0,78,0.00,,,0.00,Wunderground v.1.15,2013-02-22 04:45:00,
2013-02-21 23:55:00,25.2,19.0,30.22,South,184,1.0,2.0,77,0.00,,,0.00,Wunderground v.1.15,2013-02-22 04:55:00,